This is the latest recevied weather packets stored in our database for station/object W4UWO. If no packets are shown the sender has not sent any weather packets the latest 10 day(s).
| Time | Temp. | Humidity | Pressure | Rain* | Wind** | Luminosity | Snow |
|---|---|---|---|---|---|---|---|
| 1788545208 | 38.33° C | 40% | 1017 hPa | 0 mm | - | 935 W/m² | - |
| 1788544903 | 38.33° C | 40% | 1017.1 hPa | 0 mm | - | 955 W/m² | - |
| 1788544626 | 37.78° C | 41% | 1017.2 hPa | 0 mm | - | 914 W/m² | - |
| 1788544300 | 37.78° C | 41% | 1017 hPa | 0 mm | - | 898 W/m² | - |
| 1788543996 | 37.22° C | 42% | 1017.2 hPa | 0 mm | - | 894 W/m² | - |
| 1788543692 | 37.78° C | 42% | 1017.3 hPa | 0 mm | - | 604 W/m² | - |
| 1788543387 | 37.22° C | 43% | 1017.4 hPa | 0 mm | - | 895 W/m² | - |
| 1788543082 | 37.22° C | 43% | 1017.4 hPa | 0 mm | - | 894 W/m² | - |
| 1788542779 | 37.22° C | 43% | 1017.6 hPa | 0 mm | - | 851 W/m² | - |
| 1788542478 | 36.67° C | 44% | 1017.7 hPa | 0 mm | - | 829 W/m² | - |
| 1788542173 | 37.22° C | 43% | 1017.8 hPa | 0 mm | - | 819 W/m² | - |
| 1788541869 | 36.67° C | 43% | 1017.7 hPa | 0 mm | - | 818 W/m² | - |
| 1788541564 | 37.78° C | 42% | 1017.5 hPa | 0 mm | - | 828 W/m² | - |
| 1788541260 | 37.22° C | 44% | 1017.9 hPa | 0 mm | - | 809 W/m² | - |
| 1788540959 | 37.22° C | 44% | 1018 hPa | 0 mm | - | 785 W/m² | - |
| 1788540658 | 36.11° C | 46% | 1018.1 hPa | 0 mm | - | 779 W/m² | - |
| 1788540353 | 37.22° C | 44% | 1018 hPa | 0 mm | - | 773 W/m² | - |
| 1788540049 | 36.67° C | 44% | 1018.1 hPa | 0 mm | - | 762 W/m² | - |
| 1788539777 | 36.11° C | 46% | 1018.2 hPa | 0 mm | - | 753 W/m² | - |
| 1788539445 | 35.56° C | 47% | 1018 hPa | 0 mm | - | 748 W/m² | - |
| 1788539144 | 35.56° C | 47% | 1018.3 hPa | 0 mm | - | 742 W/m² | - |
| 1788538840 | 35.56° C | 49% | 1018.2 hPa | 0 mm | - | 733 W/m² | - |
| 1788538534 | 36.11° C | 48% | 1018.2 hPa | 0 mm | - | 723 W/m² | - |
| 1788538235 | 35.56° C | 49% | 1018.1 hPa | 0 mm | - | 715 W/m² | - |
| 1788537925 | 35.56° C | 48% | 1018.2 hPa | 0 mm | - | 704 W/m² | - |
* Rain latest hour (hover to see other rain measurements)
** Current wind speed in m/s (hover to see current wind gust speed)